Goshen, IN

9:07 AM EDT on April 25, 2017 (GMT -0400)
Goshen Municipal

Weather History for KGSH - October, 2011

Change the Weather History Date:

Friday, October 21, 2011

  Actual Average Record
Temperature  
Mean Temperature 43 °F -  
Max Temperature 51 °F 59 °F 86 °F (1953)
Min Temperature 34 °F 40 °F 18 °F (1952)
Degree Days  
Heating Degree Days 22    
Moisture  
Dew Point 40 °F    
Average Humidity 84    
Maximum Humidity 93    
Minimum Humidity 63    
Precipitation  
Precipitation 0.00 in - - ()
Sea Level Pressure  
Sea Level Pressure 30.00 in    
Wind  
Wind Speed 8 mph (West)    
Max Wind Speed 10 mph    
Max Gust Speed -    
Visibility 10 miles    
Events      
Averages and records for this station are not official NWS values.
T = Trace of Precipitation, MM = Missing Value Source: NWS Daily Summary

Daily Weather History Graph

Daily Weather History Graph

Search for Another Location

Airport or City:

Trip Planner

Search our weather history database for the weather conditions in past years. The results will help you decide how hot, cold, wet, or windy it might be!

Date:

Astronomy

Oct. 21, 2011 Rise Set
Actual Time 8:01 AM EDT 6:53 PM EDT
Civil Twilight 7:33 AM EDT 7:21 PM EDT
Nautical Twilight 7:01 AM EDT 7:53 PM EDT
Astronomical Twilight 6:29 AM EDT 8:25 PM EDT
Moon 1:46 AM EDT (10/21) 3:41 PM EDT (10/21)
Length of Visible Light 11h 47m
Length of Day
10h 51m
Waning Crescent, 34% of the Moon is Illuminated
Oct 21
Waning Crescent
Oct 26
New
Nov 2
First Quarter
Nov 10
Full
Nov 18
Last Quarter

Hourly Weather History & Observations

Time (EDT) Temp. Windchill Dew Point Humidity Pressure Visibility Wind Dir Wind Speed Gust Speed Precip Events Conditions
12:47 AM 44.6 °F 40.2 °F 42.8 °F 93% 29.84 in 10.0 mi West 8.1 mph - N/A   Overcast
12:53 AM 45.0 °F 40.6 °F 42.1 °F 90% 29.85 in 10.0 mi West 8.1 mph - N/A   Overcast
1:18 AM 44.6 °F 39.7 °F 42.8 °F 93% 29.85 in 10.0 mi West 9.2 mph - N/A   Overcast
1:29 AM 44.6 °F 39.7 °F 42.8 °F 93% 29.85 in 10.0 mi West 9.2 mph - N/A   Overcast
2:53 AM 45.0 °F 39.7 °F 42.1 °F 90% 29.88 in 10.0 mi West 10.4 mph - N/A   Overcast
3:19 AM 44.6 °F 40.2 °F 42.8 °F 93% 29.88 in 10.0 mi West 8.1 mph - N/A   Overcast
3:53 AM 45.0 °F 40.1 °F 42.1 °F 90% 29.90 in 10.0 mi West 9.2 mph - N/A   Overcast
4:53 AM 44.1 °F 39.5 °F 42.1 °F 93% 29.92 in 10.0 mi WSW 8.1 mph - N/A   Overcast
5:25 AM 44.6 °F 40.7 °F 41.0 °F 87% 29.92 in 10.0 mi WSW 6.9 mph - N/A   Overcast
5:53 AM 44.1 °F 39.5 °F 41.0 °F 89% 29.94 in 10.0 mi WSW 8.1 mph - N/A   Overcast
6:53 AM 44.1 °F 40.8 °F 41.0 °F 89% 29.96 in 10.0 mi WSW 5.8 mph - N/A   Overcast
7:53 AM 44.1 °F 39.5 °F 41.0 °F 89% 29.98 in 10.0 mi West 8.1 mph - N/A   Overcast
8:53 AM 44.1 °F 40.8 °F 41.0 °F 89% 30.01 in 10.0 mi West 5.8 mph - N/A   Overcast
9:19 AM 44.6 °F 42.2 °F 41.0 °F 87% 30.01 in 10.0 mi West 4.6 mph - N/A   Overcast
9:53 AM 45.0 °F 42.6 °F 41.0 °F 86% 30.04 in 10.0 mi West 4.6 mph - N/A   Overcast
10:41 AM 44.6 °F 40.7 °F 42.8 °F 93% 30.03 in 10.0 mi West 6.9 mph - N/A   Overcast
11:53 AM 48.0 °F - 42.1 °F 80% 30.05 in 10.0 mi West 9.2 mph - N/A   Overcast
12:34 PM 48.2 °F - 41.0 °F 76% 30.05 in 10.0 mi WNW 8.1 mph - N/A   Overcast
12:53 PM 48.0 °F - 41.0 °F 77% 30.06 in 10.0 mi West 10.4 mph - N/A   Overcast
1:53 PM 48.9 °F - 41.0 °F 74% 30.06 in 10.0 mi WNW 8.1 mph - N/A   Overcast
2:53 PM 48.9 °F - 41.0 °F 74% 30.06 in 10.0 mi West 10.4 mph - N/A   Overcast
3:23 PM 50.0 °F - 39.2 °F 66% 30.05 in 10.0 mi West 9.2 mph - N/A   Overcast
3:53 PM 51.1 °F - 39.0 °F 63% 30.06 in 10.0 mi WNW 10.4 mph - N/A   Overcast
4:53 PM 50.0 °F - 39.9 °F 68% 30.07 in 10.0 mi WNW 10.4 mph - N/A   Overcast
5:53 PM 48.9 °F - 37.9 °F 66% 30.08 in 10.0 mi West 8.1 mph - N/A   Partly Cloudy
6:53 PM 45.0 °F 42.6 °F 37.0 °F 74% 30.10 in 10.0 mi WNW 4.6 mph - N/A   Clear
7:53 PM 41.0 °F 38.0 °F 36.0 °F 82% 30.12 in 10.0 mi WNW 4.6 mph - N/A   Partly Cloudy
8:53 PM 37.9 °F - 35.1 °F 89% 30.12 in 10.0 mi Calm Calm - N/A   Clear
9:53 PM 37.0 °F - 34.0 °F 89% 30.12 in 10.0 mi Calm Calm - N/A   Clear
10:53 PM 35.1 °F - 33.1 °F 92% 30.12 in 8.0 mi Calm Calm - N/A   Clear
11:53 PM 34.0 °F - 32.0 °F 92% 30.11 in 6.0 mi Calm Calm - N/A   Clear